Theta_e
291 291 291 290 289 289 290 290 290 291 291 291 291 291 291 292 293 293 293 292 292 291 291 290 290 290 289 288 287 287 286 286 286 286 287 287 287 288 288 288 288 288 288 288 288 287 287 287 287 286 287 287 286 287 287 287 288 289 292 293 293 293 293 293 292 294 297 296 300 303 303 306 307 301 294 295 299 297 298 297 294 297 294 288 292
291 291 290 290 290 289 289 290 290 289 290 290 289 289 290 291 291 292 291 291 290 290 290 289 289 289 288 287 286 286 285 285 285 285 285 286 286 286 287 287 287 286 287 287 287 287 286 286 286 285 286 286 286 285 285 286 286 287 291 292 292 292 293 294 291 291 293 294 298 302 302 304 305 300 293 293 298 296 296 295 294 295 291 288 293
291 291 291 290 290 289 289 289 289 289 289 289 289 288 289 290 289 290 290 290 290 289 288 288 288 287 286 286 286 285 284 284 284 284 284 284 285 285 285 286 286 285 285 286 286 286 285 285 285 285 285 285 285 285 285 285 285 286 289 290 291 292 292 293 291 289 290 293 296 298 300 301 302 299 293 292 296 295 295 294 293 294 289 289 293
291 291 291 290 290 289 288 288 288 288 288 289 290 289 288 288 288 288 289 289 289 288 287 287 286 287 286 286 285 285 284 284 284 283 283 284 284 284 285 285 285 284 284 284 285 284 284 284 284 284 284 284 284 284 285 285 285 285 287 289 290 291 292 292 291 288 288 291 294 295 297 298 297 295 293 294 295 294 295 293 292 292 289 289 292
291 291 290 290 289 289 288 287 286 287 287 287 287 288 289 289 289 288 287 288 287 287 287 286 286 286 286 286 285 285 284 284 284 284 283 283 283 283 284 284 284 283 283 283 283 284 284 283 283 283 283 283 283 284 284 284 284 284 286 288 289 290 291 292 291 289 287 288 290 292 294 294 292 292 293 295 295 293 294 292 292 291 288 290 291
291 290 290 289 289 288 288 287 286 285 286 286 285 286 288 290 290 288 287 287 287 287 286 286 286 286 286 286 286 285 285 284 284 283 283 282 282 282 282 283 283 283 283 282 282 283 283 282 282 282 282 282 283 283 283 284 283 283 285 287 288 288 290 291 289 288 288 287 288 290 291 291 291 292 293 293 293 293 293 292 291 290 289 290 290
291 290 290 289 288 288 287 287 286 285 284 284 285 286 287 287 288 287 286 286 286 286 285 285 286 285 285 285 284 284 284 283 283 282 282 281 281 281 281 282 282 282 282 282 282 282 282 282 281 281 282 282 282 282 282 283 283 283 283 285 287 287 288 289 288 287 288 288 288 289 290 290 290 291 291 291 290 291 291 291 291 289 289 290 289
290 290 290 289 288 288 287 287 286 284 284 284 284 285 285 285 285 286 286 285 285 285 284 285 285 284 284 283 283 283 283 283 282 282 281 281 281 281 280 281 281 281 281 281 281 281 281 281 281 281 281 281 281 281 281 281 281 282 282 283 285 286 287 287 287 286 287 287 288 288 289 290 290 290 290 290 289 289 290 290 290 289 289 289 289
291 290 290 289 288 287 287 286 285 284 283 283 284 284 284 284 284 285 285 285 285 285 285 285 284 284 283 283 282 282 282 282 282 281 281 281 281 280 280 280 280 280 280 280 280 280 280 280 280 280 280 280 280 280 280 280 280 281 281 282 283 285 286 286 285 286 286 286 287 288 289 289 289 289 289 289 289 288 289 289 289 288 289 288 288
291 290 289 288 288 287 286 286 285 284 283 283 283 283 283 283 284 285 285 285 285 286 286 285 285 284 283 282 282 282 281 281 281 281 281 281 280 280 280 280 280 280 280 280 280 280 280 280 280 280 280 280 280 280 280 280 280 280 280 281 282 283 284 284 284 285 285 286 286 287 287 288 288 288 288 288 288 288 288 288 288 288 288 288 288
291 290 289 288 288 287 286 286 285 284 283 283 282 282 283 283 283 284 283 284 284 285 285 284 284 283 282 282 281 281 281 281 281 281 281 281 280 280 280 279 279 279 279 279 279 279 279 279 279 279 279 279 279 279 279 279 280 280 280 280 281 281 282 283 283 284 284 285 285 286 286 286 287 287 287 286 286 287 287 287 287 287 287 287 287
291 290 289 288 287 287 286 286 285 284 283 282 282 282 282 282 282 282 282 282 282 283 283 282 282 282 282 281 281 281 281 281 281 280 280 280 280 280 280 279 279 279 278 278 279 279 278 278 279 279 278 278 279 279 279 279 279 279 279 280 280 280 281 282 283 283 284 284 284 285 285 285 286 286 285 285 285 286 286 286 287 286 286 287 287
290 290 289 288 288 287 286 285 285 284 283 282 282 281 281 281 281 281 281 281 281 282 282 281 281 281 281 281 281 280 280 280 280 280 279 279 279 279 279 279 279 278 278 278 278 278 278 278 278 278 278 278 278 278 278 278 278 279 279 279 279 280 279 281 282 282 283 283 283 284 284 284 285 285 284 284 284 285 285 286 286 286 286 286 286
290 289 289 288 288 287 286 285 284 284 283 282 282 281 281 281 280 280 280 280 281 281 281 281 281 281 281 280 280 280 280 280 279 279 279 279 279 278 278 279 278 278 277 277 277 278 277 278 278 278 278 278 278 278 278 278 278 278 278 278 279 279 279 280 281 281 282 282 282 283 283 283 284 284 283 283 283 284 284 285 285 285 285 285 285
290 289 289 288 288 287 286 285 284 283 283 282 281 281 280 280 280 280 280 280 280 280 280 280 280 280 280 280 280 279 279 279 279 279 278 278 278 278 278 278 278 277 277 277 277 277 277 277 277 277 277 277 277 277 278 278 278 278 278 277 278 278 278 280 281 281 281 282 282 282 282 283 283 283 283 282 283 283 284 284 284 284 284 284 284
289 289 289 288 287 286 286 285 284 283 283 282 281 280 280 280 280 279 279 280 280 280 280 280 280 280 280 280 279 279 279 279 278 278 278 278 278 278 277 277 277 277 277 277 277 277 277 277 277 277 277 277 277 277 277 277 277 277 277 277 277 278 278 279 281 281 281 281 281 281 282 282 282 282 282 282 282 283 283 284 284 283 282 282 282
290 289 289 289 287 286 285 284 284 283 282 281 281 280 280 280 280 279 280 280 280 280 280 280 279 279 279 279 279 279 279 278 278 278 278 278 278 278 277 277 277 277 277 277 277 277 277 277 277 277 277 277 277 277 277 277 277 277 277 277 277 278 278 280 280 280 280 281 281 281 281 281 281 281 281 281 282 282 283 283 283 282 282 281 281
290 289 290 289 287 286 285 284 283 282 282 281 280 280 280 280 280 280 279 279 279 279 279 279 279 279 279 279 279 278 278 278 278 278 278 278 278 277 277 277 277 277 277 277 277 277 277 277 277 276 276 276 276 276 276 276 276 276 276 277 277 277 278 279 280 280 280 280 280 280 280 280 280 280 280 281 281 282 282 282 282 281 281 281 280
290 290 290 290 287 286 285 284 283 282 281 280 280 280 280 280 280 280 279 279 279 279 279 279 279 279 278 278 278 278 278 278 278 278 278 278 277 277 277 277 277 277 277 277 277 276 276 276 276 276 275 275 275 275 275 275 275 276 276 276 276 277 278 279 279 279 279 279 279 279 279 279 279 279 280 280 281 281 282 282 281 280 280 280 280
291 290 291 290 288 286 285 284 283 281 280 280 280 279 279 279 279 279 279 279 279 279 279 279 279 279 278 278 278 278 278 278 278 278 278 277 277 277 277 277 277 277 277 276 276 276 276 276 275 275 275 275 275 275 275 275 275 275 275 276 276 277 278 278 278 278 278 278 278 279 279 279 279 279 279 279 280 280 281 281 280 280 279 279 279
291 291 291 290 288 286 285 284 283 281 280 280 280 279 279 279 279 279 279 279 279 279 279 279 279 278 278 278 278 278 278 278 278 278 277 277 277 276 276 276 276 276 276 276 276 276 275 275 275 275 275 274 274 274 274 274 274 275 275 276 276 277 278 278 278 278 278 278 278 278 278 278 278 278 278 279 279 279 280 279 279 279 278 278 278
291 291 291 289 288 286 285 285 283 282 280 280 279 279 279 279 279 279 279 279 279 279 279 279 278 278 278 278 278 278 278 277 277 277 277 277 276 276 276 276 276 276 276 276 275 275 275 275 275 274 274 274 274 274 274 274 274 274 275 276 277 277 277 277 277 277 277 277 277 277 278 278 278 278 278 278 277 278 278 278 278 278 278 278 277
292 291 290 289 288 287 285 285 284 283 282 280 280 279 279 279 279 279 279 279 279 279 279 278 278 278 278 278 278 277 277 277 277 277 277 276 276 276 276 276 276 276 276 275 275 275 275 274 274 274 274 274 274 273 273 273 274 274 275 276 276 277 277 277 277 277 277 277 277 277 277 277 277 277 277 277 277 277 277 278 278 278 277 277 277
292 291 290 288 288 287 286 285 284 284 283 281 280 280 279 279 279 279 279 279 279 279 278 278 278 278 278 277 277 277 277 277 277 277 276 276 276 276 276 276 275 275 275 275 275 275 275 274 274 274 273 273 273 273 273 273 274 274 275 276 276 276 276 276 276 276 276 276 276 276 276 276 276 276 276 276 276 276 277 277 277 277 277 277 276
291 290 289 288 288 287 286 286 285 285 284 282 281 280 280 279 279 279 279 279 279 278 278 278 278 278 278 277 277 277 277 277 277 277 276 276 276 276 275 275 275 275 275 275 275 274 274 274 273 273 273 273 273 272 272 273 274 275 275 275 276 275 275 276 276 276 276 276 276 276 276 276 276 275 275 276 276 276 276 277 277 277 277 276 276
291 289 288 288 287 287 287 286 286 285 284 283 282 281 280 280 279 279 279 279 279 278 278 278 278 278 277 277 277 277 277 277 277 277 276 276 276 275 275 275 275 275 275 275 274 274 273 273 273 273 273 272 272 272 272 273 274 275 275 275 275 275 275 275 275 275 275 275 275 275 275 275 275 275 275 275 275 276 276 277 277 276 276 276 275
291 289 288 287 287 287 287 287 286 285 285 284 283 282 281 280 279 279 279 279 279 278 278 278 278 278 277 277 277 277 277 277 276 276 276 276 275 275 275 275 275 275 275 274 274 273 273 272 272 272 272 272 272 272 272 273 274 275 275 275 275 275 275 275 275 275 275 275 275 275 275 275 274 274 274 274 275 275 276 276 276 276 275 275 275
291 290 288 287 287 288 287 287 286 286 285 284 283 282 281 280 279 279 279 279 279 278 278 278 278 278 277 277 277 277 277 277 276 276 276 275 275 275 275 275 275 275 274 274 273 273 272 272 272 272 272 272 272 272 272 273 274 274 274 274 274 274 274 274 274 274 274 274 274 274 274 274 274 274 273 274 274 275 275 275 275 275 275 275 274
291 290 289 288 287 288 288 287 287 286 285 284 284 283 282 280 280 279 279 279 279 278 278 278 278 278 277 277 277 277 277 277 276 276 276 275 275 275 275 275 275 274 274 273 273 272 272 272 272 272 272 272 272 271 271 272 274 274 274 274 274 274 274 274 274 274 274 274 274 274 274 273 273 273 273 273 273 274 274 275 274 274 274 274 274
291 290 289 288 288 288 287 287 287 286 285 285 284 283 282 281 280 279 279 279 279 278 278 278 278 278 278 277 277 277 277 277 276 276 275 274 274 275 275 275 275 274 274 273 273 272 272 272 272 272 272 272 271 271 271 272 273 274 274 274 274 274 274 274 274 274 273 273 273 273 273 273 273 273 273 273 273 274 274 274 273 273 273 274 274
292 291 290 289 289 288 287 287 287 286 286 285 284 283 282 281 280 279 279 279 279 278 278 278 278 278 278 277 277 277 277 276 276 275 274 274 275 275 275 275 274 274 273 273 272 272 272 272 272 272 272 271 271 271 271 271 272 273 274 274 274 274 274 274 273 273 273 273 273 273 273 273 273 273 273 273 273 273 273 273 273 273 273 274 274
292 291 290 289 289 288 288 287 287 286 286 285 284 283 282 282 281 280 279 279 279 278 278 278 278 278 278 277 277 277 276 276 276 275 274 275 275 275 275 275 274 274 273 273 272 272 272 272 272 272 271 271 271 271 271 271 272 273 273 274 274 273 273 273 273 272 273 273 273 272 272 272 272 272 272 272 272 273 273 272 272 273 273 273 274
292 291 290 289 289 289 288 287 287 286 286 285 284 284 283 282 282 280 280 279 279 278 278 278 278 278 278 277 277 277 276 276 276 275 274 275 275 274 275 274 274 274 273 273 272 272 272 272 272 271 271 271 270 270 270 271 271 272 273 273 273 273 272 272 272 272 272 272 272 272 272 272 272 272 272 272 272 272 272 272 272 272 273 273 274
292 291 290 290 290 289 288 287 287 286 286 285 284 284 283 283 282 281 280 279 279 278 278 278 278 278 277 277 277 277 277 277 276 275 274 274 274 274 275 274 274 274 273 273 272 272 272 271 271 271 271 270 270 270 270 270 271 272 272 272 272 272 271 272 272 272 272 272 272 272 272 272 272 272 272 272 272 272 272 272 272 272 273 273 273
293 291 291 291 290 289 288 287 286 286 285 285 284 284 283 283 282 281 280 279 279 278 278 278 278 278 278 277 277 277 277 276 275 274 274 274 274 275 275 275 274 274 273 273 272 272 271 271 271 271 271 270 270 270 269 269 270 271 271 272 271 271 271 271 271 271 271 271 271 271 271 271 272 272 271 272 272 272 272 272 272 273 273 272 272
293 292 292 291 290 289 288 287 286 286 285 285 284 284 283 283 282 282 281 280 279 278 278 278 278 278 278 277 277 277 277 276 275 274 274 274 275 275 275 275 274 274 273 273 272 272 271 271 271 271 271 270 270 269 269 269 269 270 271 271 271 271 271 271 271 271 271 271 271 271 271 271 271 271 271 271 272 272 272 272 272 272 272 272 272
295 293 292 291 290 289 288 287 286 286 285 285 284 284 283 282 282 282 281 280 279 279 278 278 278 278 278 278 278 277 277 276 275 274 274 274 275 276 276 275 274 274 273 273 272 272 271 271 271 270 270 270 270 269 269 269 268 269 270 270 270 271 271 271 271 271 271 271 271 271 271 271 271 271 271 271 271 272 272 272 272 272 272 272 272
295 294 292 291 290 289 288 287 286 286 285 285 284 284 283 282 282 281 281 280 279 279 279 278 278 278 278 278 278 278 277 276 275 274 274 275 276 276 276 275 274 273 273 273 272 272 271 271 270 270 270 270 269 269 269 269 268 268 269 270 270 270 270 270 270 270 270 270 270 270 270 270 270 270 271 271 272 272 272 272 272 271 271 271 271
295 294 293 291 290 289 288 287 286 286 285 284 284 283 283 282 282 281 281 280 279 279 279 279 279 279 278 278 278 278 277 276 275 275 275 276 276 276 276 275 274 273 272 272 272 271 271 270 270 270 269 269 269 269 269 268 268 268 269 269 270 270 270 270 270 270 270 270 270 270 270 270 270 270 271 271 271 271 271 271 271 271 270 270 270
294 294 293 291 290 289 288 287 286 286 285 284 284 283 283 282 282 281 281 280 280 280 280 279 279 279 278 278 278 278 277 276 276 275 276 276 277 276 275 274 273 273 272 272 272 271 270 270 269 269 269 269 268 268 268 268 268 268 268 269 269 269 270 270 270 270 270 270 270 270 270 270 270 270 270 271 271 271 271 270 270 269 269 269 269
293 293 292 290 289 289 288 287 287 286 285 284 283 283 283 282 282 281 281 280 281 281 280 280 279 279 278 279 279 278 277 276 276 276 276 276 276 276 275 274 273 273 272 272 272 271 270 270 269 269 269 268 268 268 268 268 268 268 268 268 269 269 269 270 270 270 270 270 270 270 269 270 270 270 270 270 270 270 270 269 268 268 268 268 268
292 292 291 290 289 288 287 287 286 285 285 284 283 283 283 282 282 282 281 281 282 282 281 280 279 279 278 279 279 278 277 277 276 276 276 276 276 275 274 273 273 272 272 271 271 270 270 269 269 269 268 268 267 267 267 268 268 268 268 268 269 269 269 270 270 270 270 270 270 269 269 269 269 269 269 269 269 268 267 267 267 267 267 267 266
291 291 290 290 288 288 287 287 286 285 285 284 283 283 283 282 282 282 282 282 282 282 281 280 279 279 278 279 279 278 277 277 276 276 276 276 275 275 274 273 273 272 271 271 270 270 269 269 269 268 268 267 267 267 267 267 267 267 267 268 269 269 269 270 270 270 270 269 269 269 269 269 269 269 268 267 267 266 265 265 265 265 265 264 263
290 290 290 289 288 287 287 286 286 285 285 284 283 283 283 282 283 282 282 282 282 281 280 280 279 279 279 279 279 278 277 277 276 276 276 276 275 274 273 273 272 272 271 270 269 269 268 268 268 268 267 267 266 266 266 267 267 267 267 267 268 269 269 270 270 269 269 269 268 268 269 268 268 267 266 265 265 264 263 263 263 263 262 261 261
290 290 289 289 288 287 287 286 286 285 285 284 283 283 283 283 283 282 282 282 281 281 280 279 279 279 279 279 279 278 277 277 276 276 276 275 275 274 273 273 272 271 270 270 268 268 267 267 267 267 267 266 266 266 266 266 266 266 267 267 268 268 269 269 269 269 268 268 268 268 268 267 266 265 264 264 263 262 262 261 261 260 260 259 259
289 289 289 288 288 287 286 286 285 285 284 284 283 283 283 283 283 282 282 282 281 280 280 279 279 279 279 279 278 277 277 277 276 276 276 275 275 274 273 272 272 271 270 270 268 267 267 266 266 266 266 266 266 266 266 266 266 266 267 267 268 268 268 268 268 268 268 268 268 267 266 265 264 263 262 261 261 261 260 260 259 259 258 258 258
289 289 288 287 287 287 286 286 285 284 284 283 283 283 284 284 283 282 282 282 281 280 279 279 279 278 278 278 277 277 276 276 276 276 275 275 274 273 273 272 271 271 270 269 268 267 266 266 266 265 265 265 266 266 266 266 267 267 267 268 268 268 268 268 268 268 267 266 266 265 264 263 262 262 261 260 260 259 259 258 258 257 257 257 257
288 288 288 287 287 287 286 285 285 284 284 283 283 283 283 283 283 282 282 281 280 279 279 278 278 278 277 277 277 277 276 276 276 275 275 275 274 273 272 272 272 271 271 270 268 267 266 266 265 265 265 265 266 266 266 267 267 267 268 268 268 268 267 267 267 267 266 265 264 263 263 262 261 260 260 259 258 258 257 257 257 256 256 256 256
287 287 287 287 286 286 286 286 285 284 284 283 283 283 282 282 282 282 281 280 280 279 278 278 278 277 276 276 276 276 276 276 276 276 275 275 274 274 273 273 272 271 270 269 268 267 266 266 265 265 265 266 266 266 267 267 267 267 268 268 267 267 267 267 267 266 265 264 263 262 261 260 259 258 257 257 257 256 256 256 256 256 256 256 256
286 286 286 286 286 286 286 286 285 285 284 283 283 282 282 282 282 282 281 280 279 278 277 277 276 276 276 276 276 275 276 276 276 276 275 274 273 273 272 271 271 270 269 268 267 267 266 265 265 266 266 266 266 267 267 267 267 267 267 267 267 267 267 267 266 265 263 263 261 260 259 258 257 257 256 256 256 256 256 256 256 255 255 255 255
285 285 285 285 285 285 285 285 285 285 284 283 283 282 282 282 281 281 281 280 279 278 277 276 276 276 276 276 276 276 276 276 276 276 275 274 273 271 271 270 269 269 268 267 267 266 266 266 266 266 266 266 266 266 266 266 266 266 266 266 266 266 265 265 264 263 261 261 259 258 257 257 256 256 256 255 255 255 255 255 255 255 255 255 255
Wind_Speed
7 10 11 13 16 19 20 20 20 20 20 20 19 19 19 21 23 25 23 23 25 25 26 27 27 28 28 28 29 29 29 29 29 28 27 26 25 24 24 24 23 23 22 22 23 24 24 23 23 24 24 24 24 24 24 23 23 21 15 15 15 15 19 26 28 19 14 16 9 7 6 3 3 3 17 25 12 13 15 14 21 16 21 35 27
7 11 12 12 14 16 19 21 22 22 20 20 19 17 19 21 22 24 23 22 22 21 23 25 26 27 26 26 26 27 26 27 28 28 28 27 26 25 25 25 25 24 23 22 23 24 24 24 24 24 24 24 24 24 25 25 25 24 18 14 14 15 16 21 28 21 13 16 11 9 6 3 1 3 20 26 11 13 14 14 20 15 26 36 21
6 9 11 11 12 13 17 19 21 22 21 21 18 16 19 22 21 22 23 22 21 21 23 25 26 27 27 27 28 28 26 26 27 27 27 27 27 26 25 25 25 26 25 23 24 25 25 25 25 25 25 25 25 25 26 26 26 25 22 18 13 13 15 18 25 24 17 15 9 6 5 5 1 1 23 26 10 13 13 15 19 15 28 32 17
6 7 9 10 11 13 15 16 17 19 21 22 18 16 20 22 20 20 20 19 20 21 22 25 28 29 30 30 31 29 27 26 27 27 27 28 27 27 26 25 26 27 27 26 26 26 26 26 25 25 25 25 25 24 24 24 24 24 22 20 17 13 13 15 19 23 22 16 8 5 4 6 3 6 23 19 9 13 11 15 18 16 30 27 15
6 7 7 9 11 12 13 15 15 17 22 22 18 16 19 21 20 19 18 17 20 22 20 22 26 29 29 28 27 25 22 21 22 23 25 26 27 27 27 26 26 27 27 27 26 26 27 27 26 25 25 26 25 23 22 22 23 23 21 19 18 15 12 12 14 17 21 20 12 6 4 4 4 11 17 9 10 14 9 14 15 16 28 22 16
6 7 7 9 12 12 12 12 13 18 22 20 18 18 19 20 20 18 17 16 18 19 19 19 23 23 22 21 19 17 17 17 17 18 20 23 25 26 27 26 27 27 27 27 26 26 26 27 26 25 24 25 24 22 21 21 22 23 21 17 16 15 11 11 13 13 14 17 15 10 5 4 6 12 10 6 13 12 9 15 13 15 23 16 15
6 7 8 7 11 14 13 9 10 17 20 18 19 20 19 19 19 18 17 17 18 19 20 21 23 23 23 23 21 17 17 17 16 18 20 22 24 25 26 26 26 27 27 27 26 26 26 26 26 24 23 23 23 23 22 21 21 22 21 17 15 15 13 11 13 12 11 12 13 9 6 5 6 8 6 7 11 9 14 18 14 18 21 15 16
5 6 7 7 9 13 12 9 9 15 18 19 21 21 19 19 20 20 20 20 21 22 22 23 24 25 25 27 26 22 20 18 17 19 20 22 23 23 25 26 26 26 26 26 26 26 26 26 26 24 24 24 23 24 23 21 21 21 21 19 15 14 14 12 11 12 11 11 11 8 7 6 5 5 4 6 7 8 14 15 16 22 19 15 17
5 5 7 8 10 11 11 10 11 15 18 20 22 21 20 20 20 21 21 22 23 22 23 24 25 26 26 27 26 23 21 19 18 18 20 21 22 22 23 24 24 25 25 25 25 25 25 24 24 24 23 23 23 23 22 21 21 21 20 19 16 14 13 12 11 11 10 10 10 9 8 8 6 5 5 8 8 8 9 10 18 24 18 17 18
5 7 8 9 10 10 10 10 12 15 17 19 20 20 20 20 21 22 22 22 22 22 22 22 24 25 27 28 25 22 20 19 18 18 18 19 20 20 21 21 23 24 23 23 23 23 23 23 23 23 22 22 22 21 21 20 19 19 18 18 17 14 12 12 11 10 9 9 10 9 9 10 8 7 8 10 10 9 9 10 16 19 17 18 19
7 8 8 10 11 10 10 10 11 14 17 19 20 20 20 20 21 23 22 22 23 23 23 24 25 26 28 28 27 24 21 19 18 17 17 18 18 18 19 20 22 22 22 21 22 22 22 21 22 22 21 21 21 20 20 19 17 16 17 16 16 15 13 11 10 10 10 9 10 9 9 10 9 9 10 11 11 10 10 11 15 17 16 18 18
8 7 8 10 11 10 9 10 11 13 16 18 19 20 21 21 21 23 23 23 24 25 25 26 26 27 27 27 27 25 23 21 20 20 19 18 17 16 16 17 18 19 20 20 20 21 20 20 20 20 20 19 19 18 17 17 17 16 16 15 15 14 13 11 10 11 10 9 9 9 8 9 8 9 10 11 12 12 12 12 15 17 15 15 17
8 6 8 10 11 11 11 10 11 12 14 16 18 20 21 21 21 23 23 23 24 25 26 26 27 27 27 26 26 25 24 23 23 21 20 19 17 16 14 14 15 16 18 19 19 19 19 19 18 18 18 17 17 17 16 17 16 15 15 15 14 13 13 11 10 10 9 9 9 9 8 8 8 8 10 11 11 13 13 13 15 16 15 16 17
8 7 8 10 11 11 11 11 11 12 13 15 18 20 21 21 21 22 22 23 24 25 25 25 26 26 25 25 25 24 24 23 22 21 20 19 18 18 16 14 14 15 17 17 17 17 17 16 16 16 16 16 16 15 16 16 15 14 13 13 12 11 11 9 9 9 9 9 9 9 9 8 8 9 10 10 11 12 13 14 16 16 16 17 16
8 9 10 11 12 12 11 11 11 12 13 15 19 21 22 22 22 22 22 23 24 24 25 25 25 24 24 23 23 23 23 22 22 21 20 20 19 19 17 15 15 15 16 15 15 15 15 15 15 15 15 15 15 14 14 13 12 12 11 11 11 11 11 9 8 9 10 10 9 9 9 8 8 9 9 10 11 12 12 15 16 14 13 13 14
10 10 11 12 13 12 11 11 11 12 13 15 19 22 23 23 22 22 23 23 24 24 24 24 23 23 22 22 22 22 22 21 21 20 19 19 18 18 17 16 15 15 14 14 14 14 14 14 14 14 14 14 13 12 12 11 11 11 11 11 11 11 11 9 8 9 9 9 9 9 9 8 8 9 10 10 11 11 12 14 14 13 12 11 11
13 11 12 14 15 13 12 12 12 13 14 16 19 22 23 23 23 23 23 23 23 22 23 22 22 22 21 20 20 20 20 20 19 18 18 17 17 16 16 15 14 13 13 13 13 13 13 13 12 12 12 11 11 10 10 11 11 10 10 11 10 10 9 8 8 8 9 9 9 9 9 8 8 9 10 11 11 11 11 11 12 13 13 11 10
15 14 15 15 15 15 14 13 12 14 17 18 20 21 22 22 23 23 23 23 22 22 22 21 21 21 20 19 18 18 18 18 17 17 16 15 15 14 14 13 12 12 12 12 12 12 11 11 11 10 10 10 10 10 10 11 10 9 8 9 9 9 8 7 7 8 9 9 9 10 9 8 9 10 11 11 11 11 11 10 11 13 14 12 12
15 14 14 15 16 15 15 15 14 16 19 21 21 22 22 22 22 22 22 22 21 21 21 20 20 20 19 18 17 16 16 16 15 15 14 13 13 12 12 11 11 11 11 11 11 10 10 10 10 9 9 9 10 10 11 11 10 9 9 8 9 10 9 8 8 8 9 9 10 10 10 9 10 11 11 11 11 11 10 11 12 14 14 14 15
15 14 14 16 17 16 16 16 16 18 21 22 22 22 22 22 21 22 22 21 21 21 20 19 18 18 17 16 15 15 14 14 13 13 12 12 11 11 10 10 10 10 10 10 10 9 9 9 9 9 9 10 10 10 11 11 10 10 10 9 9 9 8 8 8 9 9 9 9 10 10 10 10 11 11 11 12 11 10 11 13 14 14 13 15
15 15 16 17 18 17 17 17 18 21 22 23 23 22 22 22 21 22 21 21 21 20 19 19 17 16 16 15 14 14 13 12 12 11 11 10 10 9 9 8 9 8 9 9 9 8 8 8 8 9 9 10 10 10 11 12 12 11 10 8 8 8 8 8 8 9 9 9 9 10 10 11 11 11 12 12 12 12 11 13 14 14 14 13 15
16 16 17 18 19 19 18 19 20 21 21 23 24 23 23 23 22 22 22 21 21 20 19 18 17 16 15 14 13 13 12 11 11 10 10 9 9 8 7 7 8 8 8 8 8 7 8 8 9 9 9 9 10 11 11 12 12 11 9 7 7 8 8 9 9 10 10 10 10 11 11 11 11 11 12 13 13 13 12 13 14 14 15 16 16
17 16 17 19 19 19 19 19 19 19 20 22 24 24 24 24 23 22 22 21 20 19 18 17 16 15 14 13 13 12 11 11 10 9 9 8 7 7 6 6 7 7 7 7 7 7 7 8 8 9 9 10 10 10 11 11 11 9 8 7 7 8 8 9 10 10 11 11 11 12 12 12 12 12 13 13 12 13 13 14 15 15 16 18 18
17 16 17 18 19 19 18 19 20 20 20 22 24 25 24 23 24 23 22 21 20 19 18 17 16 15 14 13 13 12 11 10 10 9 8 7 6 6 5 6 6 6 6 6 6 6 6 7 8 8 9 9 10 10 10 10 9 8 7 7 8 8 9 10 10 11 11 12 12 12 12 12 13 13 14 13 12 13 15 15 16 16 16 18 19
16 15 15 17 18 18 19 20 21 21 21 22 24 24 24 24 25 24 23 22 21 20 19 18 17 16 15 14 13 12 11 10 9 8 7 6 5 5 5 5 4 4 4 5 5 5 6 7 7 7 8 9 10 11 11 10 8 7 6 7 7 9 9 10 10 10 11 11 11 12 12 12 13 14 14 13 13 15 16 16 16 17 17 19 19
17 15 15 16 18 19 21 22 22 22 23 23 23 22 23 25 26 25 24 24 22 21 20 19 18 16 15 14 13 12 11 9 8 7 6 5 5 4 3 2 2 2 3 4 4 5 5 5 6 7 9 10 10 11 11 10 7 7 7 7 8 8 9 9 9 10 10 11 11 12 12 12 13 14 14 14 15 16 17 17 17 18 18 19 20
15 15 15 16 18 22 24 24 24 24 24 23 23 23 25 26 26 26 25 25 23 22 21 20 18 17 16 15 13 12 11 10 9 8 7 6 4 4 3 1 0 2 3 3 4 4 4 5 6 8 9 10 11 11 10 8 7 7 7 8 9 8 9 9 9 10 10 11 11 12 12 13 13 13 14 15 17 17 17 17 17 18 19 20 21
14 15 17 18 19 21 24 25 25 24 23 23 24 25 26 26 27 28 27 26 26 24 22 21 19 18 17 16 15 13 12 11 10 9 7 6 5 5 3 2 0 1 3 3 4 4 4 5 7 9 10 10 11 11 9 8 7 8 8 9 9 9 9 10 10 10 11 11 11 12 12 12 12 14 15 17 17 17 17 18 18 18 19 20 21
18 19 20 19 19 22 25 26 25 24 25 25 24 24 25 26 28 29 29 28 27 26 24 22 20 19 18 17 16 15 13 12 11 10 9 8 7 6 4 2 0 2 3 4 4 4 5 5 7 9 10 10 10 10 9 8 8 9 9 9 9 9 10 10 10 11 11 11 12 12 11 12 13 15 16 17 17 16 17 18 19 20 20 21 22
22 22 21 20 21 24 26 26 26 27 27 26 24 25 27 28 30 32 31 30 29 27 25 24 22 21 20 19 18 16 14 13 12 11 10 10 9 7 4 2 0 2 3 4 4 4 5 6 7 8 9 10 10 9 8 8 8 10 10 9 10 10 10 9 11 12 12 12 12 12 12 13 14 15 16 16 16 17 17 19 20 21 21 22 23
22 21 20 20 22 25 26 26 28 28 28 27 26 27 29 31 32 33 33 32 31 29 27 26 24 22 21 21 19 17 16 15 14 13 12 11 10 7 4 2 0 1 3 3 4 4 5 6 7 8 9 10 9 9 8 8 9 10 10 10 11 10 9 10 10 11 12 12 12 12 13 13 14 15 16 17 18 18 18 19 21 21 22 23 24
21 20 20 20 22 25 28 29 29 29 29 30 29 28 30 33 34 35 35 33 32 30 29 27 25 23 23 22 20 19 19 17 15 13 13 12 11 7 5 3 1 1 3 3 4 5 6 7 8 9 9 9 9 9 9 8 10 11 11 11 11 9 9 10 10 11 12 12 12 13 13 13 14 15 17 18 19 19 19 20 22 23 24 24 24
19 19 20 20 22 27 30 31 30 31 33 34 33 33 35 38 38 37 36 35 34 32 30 28 26 25 25 24 22 21 20 18 15 14 15 14 12 8 5 3 2 2 3 4 5 5 6 7 8 9 9 9 10 10 9 9 10 11 11 12 10 8 9 10 11 11 12 12 13 13 14 14 14 16 18 18 19 20 21 22 23 24 24 24 24
18 18 19 21 24 26 28 29 30 32 35 36 38 39 40 39 38 37 37 37 35 33 31 29 28 27 27 26 25 23 21 19 17 16 17 16 13 9 5 3 3 3 4 4 5 6 6 7 8 9 10 10 10 10 10 9 10 11 12 12 9 8 9 11 11 12 12 13 14 14 15 15 16 17 18 18 20 22 23 24 25 25 25 25 25
19 18 19 23 25 25 26 29 31 33 37 39 40 41 39 37 38 38 38 38 37 35 33 31 30 30 29 28 26 24 22 20 19 18 19 17 13 9 5 3 4 4 5 5 5 6 6 7 8 9 10 11 11 11 10 9 10 11 12 11 8 7 9 11 11 12 13 14 14 14 15 17 18 18 19 20 22 23 25 27 27 26 27 27 26
19 21 23 27 29 30 31 31 31 34 39 41 41 41 39 38 39 40 39 39 37 35 34 33 33 32 31 30 28 26 25 22 20 20 20 18 13 8 5 5 5 6 6 6 6 7 7 8 9 10 10 11 11 11 11 10 10 11 11 10 8 8 10 12 12 13 14 14 14 14 16 17 19 20 21 21 23 25 27 28 27 28 29 28 25
20 22 25 26 28 29 28 27 28 34 40 41 41 41 39 37 38 39 40 39 37 35 36 37 36 35 34 33 30 28 27 25 22 22 22 18 13 9 7 6 7 7 7 7 7 7 8 8 9 10 11 12 12 12 11 11 11 11 11 10 8 9 11 12 12 14 14 14 14 15 16 19 20 21 22 22 24 26 27 27 30 30 27 24 22
19 20 21 21 23 24 25 27 29 33 38 41 42 41 39 37 37 39 39 38 37 38 40 40 39 38 37 35 32 30 29 27 25 24 23 18 13 10 9 8 8 8 9 8 8 8 9 9 9 10 11 12 13 13 12 12 12 11 11 10 9 9 10 12 13 14 14 14 15 16 17 18 20 22 23 24 25 26 27 29 30 26 21 20 21
19 22 22 23 26 27 26 27 28 29 35 40 41 41 40 37 38 40 38 36 38 42 44 43 42 40 38 36 33 31 31 30 28 26 23 18 13 11 10 10 10 10 10 9 8 8 9 10 10 11 11 12 13 13 13 13 12 11 10 10 10 10 11 12 13 14 15 15 15 17 17 18 20 22 23 24 25 26 28 28 24 20 18 21 25
19 22 24 24 29 30 28 28 31 32 37 41 41 41 40 38 39 41 37 37 43 47 47 45 43 41 39 36 34 33 33 31 29 28 23 18 14 13 12 12 11 11 10 10 9 9 9 11 11 12 12 12 13 14 14 13 13 12 10 10 10 11 11 12 13 14 15 16 16 18 18 18 19 21 24 26 27 27 27 24 20 18 21 26 30
17 21 23 23 26 31 30 31 34 36 39 42 43 41 40 40 41 41 41 44 49 49 47 46 44 42 40 37 35 35 34 32 30 28 23 19 16 15 14 13 12 12 11 10 10 9 10 11 12 12 12 12 13 14 14 13 13 11 10 10 10 11 12 15 16 16 16 17 18 19 18 18 21 25 26 26 25 26 26 24 22 23 28 32 33
15 20 23 22 23 27 29 30 33 37 41 44 44 43 41 40 41 44 48 50 50 49 48 47 44 42 40 38 36 36 35 33 31 28 23 20 18 17 15 14 13 12 12 11 10 10 10 11 12 13 13 13 13 13 13 13 13 11 10 10 11 13 14 16 17 17 16 17 19 20 21 23 24 24 24 24 26 28 27 25 25 28 33 36 36
16 20 25 26 23 25 28 30 33 39 42 44 46 46 41 39 43 48 50 50 50 50 48 46 43 42 41 39 38 38 36 33 31 28 24 22 20 18 16 15 14 13 12 12 11 11 11 11 12 13 14 13 13 13 14 13 12 11 10 10 12 14 15 16 17 17 18 19 21 22 22 22 22 23 27 28 27 26 26 26 28 32 35 37 39
17 21 27 28 25 24 27 29 34 40 43 45 49 48 43 42 47 48 47 48 50 49 46 44 43 42 41 41 40 39 37 34 31 28 25 23 21 19 17 16 15 14 13 12 12 11 11 11 12 13 13 13 13 13 13 12 11 11 10 10 12 14 16 17 17 18 18 20 22 22 21 23 26 28 29 28 27 27 29 31 33 34 33 33 31
16 19 25 28 27 26 26 28 34 40 43 45 50 48 45 46 49 46 45 49 50 47 45 44 44 43 43 42 41 39 38 35 32 29 27 24 23 21 19 18 17 16 15 13 12 12 11 11 12 12 13 13 12 11 10 9 9 10 9 11 13 15 16 17 17 18 18 20 22 23 24 26 27 27 28 30 33 34 33 31 30 28 25 22 20
14 17 24 28 28 28 28 28 31 38 42 45 49 50 48 49 48 44 45 48 48 45 43 43 44 44 43 41 40 39 37 34 32 30 27 25 23 22 21 19 18 17 16 14 13 13 12 11 11 11 11 12 11 9 7 7 7 7 9 11 14 14 15 16 17 18 20 21 22 23 24 25 26 28 31 33 34 33 31 28 27 24 18 14 14
18 21 26 29 27 26 29 31 33 38 42 45 47 51 52 49 44 42 43 44 44 43 42 42 43 43 42 41 41 40 38 36 33 30 28 26 24 22 22 21 20 19 17 16 15 14 13 11 10 9 9 9 8 6 6 5 6 8 11 13 14 14 15 16 17 18 19 19 20 22 24 28 31 32 32 31 29 29 28 26 24 22 16 13 14
21 22 25 29 29 28 30 32 34 38 42 45 47 50 50 45 39 38 39 40 42 43 43 44 45 44 42 42 42 41 40 38 35 33 31 29 27 26 25 23 21 19 17 17 16 14 12 10 8 6 5 6 6 5 5 5 8 11 13 14 14 15 15 16 17 17 17 18 22 27 30 32 33 31 29 26 24 23 21 18 18 18 15 13 14
23 24 27 31 32 31 31 32 35 39 41 42 44 45 44 41 38 37 38 40 43 43 42 43 43 42 42 42 42 42 41 38 36 34 32 30 28 27 25 23 20 18 16 16 15 13 11 9 7 6 6 6 6 6 6 8 11 13 13 14 14 15 16 16 16 16 19 23 28 31 31 29 27 24 20 18 16 16 14 13 13 14 14 13 13
23 24 27 29 31 31 30 31 36 38 38 39 40 40 40 40 39 38 40 42 43 41 40 40 40 42 43 42 42 42 40 38 36 35 33 31 28 25 23 21 19 18 17 15 13 11 9 7 5 5 6 7 7 7 8 10 12 12 12 13 14 15 15 14 14 17 23 27 28 27 24 20 17 15 13 12 12 13 13 12 13 13 14 14 14
23 23 25 28 29 30 30 32 34 33 34 38 40 39 39 40 41 41 42 43 42 41 40 39 41 43 44 44 43 43 41 39 38 36 34 33 30 26 24 22 19 17 16 13 11 9 8 7 6 6 7 9 10 9 9 10 10 10 11 12 12 12 11 11 14 20 24 24 22 19 16 13 10 9 10 10 11 12 13 13 14 14 14 14 14
Wind_Direction
69 66 61 61 68 74 78 81 83 85 86 86 83 84 91 95 101 103 101 106 110 111 113 113 109 106 102 98 94 91 91 90 88 88 88 87 87 87 88 87 84 83 82 82 80 76 71 67 66 64 61 58 54 54 50 47 45 41 34 25 27 24 21 21 17 12 357 354 348 341 354 20 75 96 7 12 31 20 22 18 13 19 3 3 12
69 66 64 61 62 70 79 83 84 79 80 84 78 74 88 92 93 99 99 98 100 103 108 109 108 108 104 100 97 93 89 88 86 84 85 86 86 85 85 84 82 80 78 79 79 76 71 66 64 62 62 59 55 55 52 50 47 44 38 27 28 27 26 21 17 22 7 348 335 326 351 9 132 135 360 4 21 14 19 17 13 16 0 4 15
80 70 66 62 57 66 76 81 85 85 83 85 79 72 85 90 86 93 98 98 98 98 102 106 109 109 107 104 102 97 91 88 86 84 84 83 83 82 82 82 81 79 76 75 75 75 72 66 62 60 60 58 55 52 50 49 46 45 41 31 28 28 31 26 23 30 12 346 335 330 353 348 275 107 352 352 9 11 14 14 12 11 360 5 15
110 93 79 69 59 61 70 73 79 90 91 88 84 79 84 89 86 86 90 95 101 101 102 107 111 111 108 105 102 97 92 89 87 84 82 81 80 80 80 79 79 78 75 72 72 73 72 67 64 60 59 58 55 51 48 46 44 45 43 35 33 29 28 27 27 32 26 15 3 326 324 340 339 344 339 338 0 4 8 10 7 4 359 4 10
123 111 102 92 76 60 62 73 78 85 89 88 87 88 91 95 93 90 90 97 105 107 107 108 108 107 105 102 98 94 89 85 81 78 77 77 77 77 78 77 77 77 75 72 71 71 71 69 66 61 59 58 56 53 49 47 46 46 44 37 34 31 26 28 27 30 35 37 29 2 341 346 345 334 329 323 345 350 0 3 4 4 359 1 1
125 111 108 103 96 82 63 67 77 80 84 88 91 94 97 101 104 105 104 105 107 109 113 116 114 112 108 103 99 93 85 77 73 74 74 76 76 77 78 77 76 76 75 73 71 70 70 69 67 63 60 58 57 55 52 48 47 47 44 39 35 33 30 32 29 26 34 39 38 39 31 358 326 328 330 321 329 336 349 350 357 3 357 358 357
135 116 110 104 99 95 82 68 70 81 89 95 97 99 101 106 114 118 117 113 111 110 114 116 115 113 112 108 102 95 88 82 80 82 81 81 80 78 77 76 75 75 74 73 71 69 68 68 67 64 61 59 57 56 54 49 48 48 47 44 37 34 35 35 29 23 27 31 31 35 29 5 331 330 342 331 323 325 333 336 345 352 352 355 354
144 124 119 114 100 98 101 98 92 99 104 105 103 104 107 110 115 118 117 114 112 111 112 112 110 107 106 104 100 95 93 92 89 88 88 86 84 80 78 76 74 74 73 72 70 68 67 66 66 65 62 60 58 57 56 53 51 50 48 46 41 36 36 35 28 25 25 19 16 19 14 3 349 343 345 334 321 310 322 331 335 339 346 351 349
152 140 133 125 111 107 114 115 114 115 113 109 109 111 112 111 112 111 110 109 110 111 110 110 110 108 105 102 99 97 97 97 95 92 91 89 86 83 80 77 74 72 71 70 68 66 66 65 64 63 62 59 58 57 56 54 51 49 47 45 41 37 35 35 30 25 23 15 9 8 6 3 0 358 349 339 326 310 317 328 330 332 338 344 345
158 149 138 126 118 117 122 120 118 119 116 114 113 112 111 110 110 108 105 106 109 112 112 111 112 110 108 106 104 103 102 102 100 95 93 90 87 84 81 78 75 72 69 67 66 65 63 62 62 60 59 58 56 55 53 52 48 45 45 42 41 39 33 32 30 23 20 15 9 5 5 5 359 356 352 344 332 316 312 316 325 330 330 333 339
164 153 138 126 123 125 128 125 122 121 119 118 114 111 110 108 109 108 106 108 111 113 115 114 113 112 111 111 110 109 108 105 102 97 95 92 88 84 81 78 76 72 68 65 64 64 61 59 59 58 56 55 53 52 50 50 46 43 42 41 40 38 32 27 25 21 16 11 10 9 6 3 357 353 348 343 337 327 319 317 323 327 321 321 330
165 155 143 134 133 137 139 134 128 122 119 119 116 114 113 111 111 111 111 114 115 116 117 115 114 113 112 112 112 111 110 107 103 99 97 94 89 86 82 77 73 70 67 64 61 61 59 57 56 55 54 52 51 50 48 47 47 43 39 38 34 31 29 27 20 17 15 8 5 4 2 0 355 353 347 341 337 330 324 319 322 326 319 316 323
164 156 154 150 148 150 150 145 135 125 121 122 120 119 118 117 117 117 116 118 118 118 118 116 114 112 112 112 111 110 108 105 103 100 98 95 92 89 83 76 72 68 66 63 60 58 57 54 52 51 51 49 47 46 44 42 42 39 34 34 33 26 27 29 18 13 13 6 2 358 358 357 353 351 346 340 336 331 328 322 322 324 318 315 320
162 163 168 164 159 159 158 152 141 131 128 129 129 127 125 123 123 122 121 122 121 120 118 116 114 113 113 112 111 109 106 104 103 101 99 96 92 89 84 79 74 71 68 64 60 56 53 50 48 46 44 43 41 38 38 36 36 36 31 31 32 24 23 23 12 10 11 5 4 358 353 352 350 350 345 341 339 335 333 329 327 324 317 315 318
167 170 176 172 164 162 162 155 146 138 136 136 136 134 131 129 128 127 126 126 124 122 120 117 115 115 114 112 111 109 107 105 103 101 99 96 92 89 86 83 79 74 69 63 57 52 49 45 43 40 38 37 34 32 33 31 32 34 30 28 25 19 19 16 4 4 4 1 1 356 350 349 350 348 345 343 340 335 334 333 333 330 323 320 320
175 174 175 174 168 165 162 155 148 143 140 141 141 139 137 135 134 132 130 128 126 123 120 118 117 116 115 113 112 110 109 107 104 101 98 95 92 90 87 83 79 73 66 59 53 47 44 41 38 36 34 32 30 30 31 30 33 35 30 25 20 13 12 9 2 358 356 355 356 353 350 347 349 348 343 341 338 335 334 334 337 337 330 324 323
180 177 174 174 170 166 162 157 153 148 145 146 145 144 141 139 137 135 132 129 126 124 122 120 120 118 117 116 114 112 110 108 105 102 99 96 93 89 85 81 77 71 64 56 50 44 39 38 36 34 33 32 32 33 33 34 36 31 23 20 14 9 5 1 358 354 351 351 352 353 353 349 349 347 342 340 337 334 333 332 334 334 329 323 319
182 176 175 176 172 167 162 159 155 151 151 151 149 146 143 141 139 136 134 132 130 128 127 126 125 123 121 120 117 114 111 108 106 103 99 96 93 89 86 81 76 68 59 52 47 42 38 37 38 38 36 36 37 37 36 38 35 26 18 14 12 13 7 355 352 352 351 352 351 353 354 351 349 345 340 338 336 333 330 327 325 326 325 318 312
182 177 175 176 174 168 162 158 154 153 155 155 152 150 147 145 143 141 139 137 136 135 134 133 132 129 126 124 119 115 112 109 106 103 101 98 95 92 88 81 74 65 56 51 45 42 39 40 42 42 41 40 40 39 37 36 34 27 21 13 11 14 5 350 351 351 348 349 349 350 352 350 347 342 338 337 335 332 327 322 319 319 319 314 308
181 179 178 175 172 169 164 160 156 156 159 158 156 155 153 151 149 147 145 144 143 142 141 140 137 134 130 126 123 119 116 112 109 106 103 101 97 93 87 80 71 62 54 49 46 43 41 42 44 44 43 41 39 37 35 34 30 25 22 15 7 4 354 345 347 347 347 347 345 346 347 345 343 340 338 336 333 330 323 318 317 317 317 314 309
179 180 179 173 170 167 164 161 160 161 163 163 163 161 160 158 156 153 151 150 150 149 147 145 141 138 135 131 128 124 120 116 112 110 106 103 101 96 90 80 71 61 53 48 44 42 41 42 44 44 42 39 36 33 31 30 28 23 20 11 358 353 348 344 343 344 347 347 344 342 342 342 342 339 335 334 330 326 321 317 317 317 315 315 313
180 180 176 171 169 167 164 164 164 165 167 169 170 169 167 165 162 160 158 157 157 155 153 151 147 144 141 137 132 128 124 120 117 115 113 111 108 102 93 82 70 56 48 45 41 40 41 43 44 44 42 37 33 31 29 28 26 21 11 360 353 350 346 343 343 344 346 345 342 340 340 340 339 334 329 328 325 323 320 317 317 315 311 311 313
181 178 174 171 169 167 166 166 167 169 172 174 176 175 173 171 168 165 164 163 162 161 159 156 152 150 146 142 138 134 132 130 128 127 124 120 116 105 90 77 65 51 44 41 39 39 41 43 44 42 39 35 31 29 26 25 24 18 6 353 349 347 343 343 343 343 343 342 340 337 336 336 332 328 324 323 323 323 321 317 314 311 308 308 310
179 176 172 168 166 165 167 170 173 177 178 179 181 180 178 176 174 171 170 170 168 166 165 162 159 157 153 151 148 145 143 140 138 135 132 126 116 102 87 72 60 48 41 37 35 38 40 42 42 39 37 34 30 27 25 24 22 14 0 349 346 345 342 341 339 339 339 337 336 332 328 328 325 323 323 322 323 324 322 317 312 308 307 307 307
176 173 168 164 165 169 173 178 181 182 182 183 184 183 181 180 179 176 175 175 174 172 171 168 167 165 161 160 156 152 150 148 146 144 139 133 118 105 91 75 62 44 36 34 34 36 41 42 39 37 36 31 27 25 25 23 18 9 358 348 345 341 337 336 334 334 332 329 327 323 319 322 323 323 323 322 323 323 320 315 311 308 308 307 306
175 172 169 169 173 179 182 185 186 185 185 185 184 183 182 183 183 181 180 179 178 178 177 175 174 172 169 166 162 159 158 158 158 155 150 145 131 121 110 91 66 37 31 33 35 38 43 43 38 34 33 30 27 24 23 22 14 3 355 345 340 337 333 332 328 325 323 319 317 317 317 320 322 323 322 320 320 319 317 314 311 308 307 307 306
176 175 175 177 182 187 188 188 188 188 187 186 184 183 184 185 185 185 184 182 181 182 181 181 180 177 175 173 170 167 167 167 168 167 164 160 155 153 157 156 73 33 33 34 38 43 40 35 33 32 30 27 24 22 22 21 7 356 350 340 336 334 329 326 320 316 315 314 313 314 315 317 319 320 320 318 317 316 315 313 311 309 308 307 307
179 183 184 186 188 189 189 190 190 190 188 186 187 187 187 186 186 186 187 186 186 185 185 184 184 183 181 180 177 176 176 176 176 176 175 174 176 183 188 191 159 31 29 30 31 36 35 27 26 26 25 22 21 22 23 15 359 351 344 334 330 326 323 319 314 311 311 312 312 311 310 310 312 314 315 314 313 313 313 312 310 309 307 305 305
186 189 190 191 191 189 189 191 191 189 188 189 188 187 186 186 188 189 190 190 189 188 187 187 187 187 186 185 183 182 182 183 183 183 184 186 191 195 197 197 176 18 19 20 21 25 26 21 19 18 17 20 21 19 18 11 358 347 339 331 324 319 317 313 311 311 311 310 310 308 304 302 303 305 307 308 308 308 309 309 310 310 306 303 302
190 192 192 192 192 190 189 190 191 191 191 189 187 187 187 188 191 192 192 192 192 190 190 191 191 190 190 189 188 187 187 189 189 188 190 195 201 203 202 208 318 7 6 9 10 15 16 11 11 11 13 19 20 13 11 10 358 345 338 330 321 315 312 310 310 311 309 308 307 304 301 299 299 302 303 305 306 304 304 306 307 307 304 301 300
195 194 192 191 191 190 190 191 193 192 190 189 188 188 190 191 193 194 193 193 194 193 193 194 193 193 193 192 192 192 194 195 194 192 195 203 209 208 205 211 264 346 352 357 357 0 4 0 2 5 8 15 15 5 3 6 356 345 338 329 319 313 308 305 306 305 304 304 304 303 303 300 300 304 304 305 304 301 300 304 305 304 300 297 296
196 193 192 192 191 191 192 193 193 191 190 191 189 186 189 193 194 195 195 195 195 195 195 196 196 196 196 195 195 196 198 199 197 195 201 209 211 206 201 207 225 299 331 343 343 344 350 353 356 359 359 4 5 359 360 1 349 340 337 329 317 308 304 302 303 302 301 302 303 303 305 302 301 304 304 304 303 300 299 301 303 303 300 296 294
197 195 194 194 194 194 194 192 191 191 192 193 191 189 193 196 197 196 196 196 197 197 198 198 198 198 198 198 198 198 201 202 200 201 208 212 209 203 201 209 232 284 315 326 330 335 341 345 348 350 348 352 355 354 356 356 344 335 335 329 314 303 301 299 300 302 300 302 304 304 305 303 303 305 306 305 304 303 302 303 304 303 301 298 297
200 199 197 197 197 196 195 193 193 194 195 196 197 198 199 199 197 197 197 197 198 198 199 200 200 200 200 201 201 201 203 205 204 207 211 211 207 203 203 214 247 280 301 312 321 328 332 335 338 340 338 340 345 347 351 352 342 334 332 326 312 301 300 299 299 301 301 301 302 303 304 304 305 307 306 305 306 305 305 305 305 303 301 300 299
200 201 200 199 197 194 193 195 195 196 197 199 200 201 200 199 198 198 198 199 199 199 200 201 202 202 202 203 203 203 205 206 206 209 212 210 207 204 208 228 253 271 286 298 308 314 318 322 327 329 329 330 335 340 345 346 340 334 331 325 312 301 302 301 300 299 300 299 300 302 302 302 304 306 304 304 306 307 306 305 304 303 303 302 300
201 200 200 198 196 196 195 194 193 196 198 200 201 201 200 199 199 200 200 200 200 200 201 203 204 204 205 205 205 204 206 206 206 209 212 210 207 206 214 233 250 264 277 289 298 305 309 313 317 320 321 323 328 333 337 339 338 336 333 325 312 306 305 303 300 300 299 298 299 302 303 302 303 303 303 304 306 306 306 305 305 305 304 302 300
206 204 204 202 200 198 196 193 191 196 200 201 201 201 199 198 198 199 200 201 200 200 203 205 206 206 207 208 206 205 207 207 206 209 212 210 208 211 219 233 246 257 269 282 291 297 302 305 308 312 315 317 320 326 330 333 335 337 335 325 313 308 307 303 300 299 299 299 300 301 302 302 301 301 303 304 306 308 307 306 305 305 304 303 302
207 204 203 200 199 197 196 195 195 198 202 202 202 201 198 197 198 199 200 200 200 202 205 207 208 208 209 209 208 208 209 208 208 210 212 210 210 215 224 231 239 248 259 272 283 290 296 300 303 306 308 311 315 319 323 328 332 336 335 325 314 308 305 301 299 299 300 301 301 300 300 300 300 301 302 304 308 309 308 306 306 306 307 307 307
208 205 203 200 200 200 198 198 197 198 202 203 202 200 198 197 199 199 199 199 200 204 208 210 211 210 210 210 210 210 211 210 210 212 213 213 214 219 224 228 233 242 252 265 279 287 292 296 300 303 304 308 311 314 318 323 328 333 334 327 316 309 302 299 300 302 303 303 302 301 300 299 299 301 304 307 309 308 306 308 313 316 315 312 311
207 207 205 202 202 200 196 197 199 200 202 203 202 200 199 199 200 200 200 200 203 207 211 213 213 211 211 211 212 212 213 212 213 214 215 215 217 220 222 225 231 240 250 264 277 285 289 293 297 301 303 306 307 309 313 319 324 329 332 326 316 307 302 301 301 303 305 306 305 303 301 300 301 304 307 308 307 308 313 321 327 323 315 312 313
204 205 202 198 198 199 198 200 201 201 202 202 200 199 200 201 202 202 204 205 207 210 212 213 213 211 211 212 213 214 214 213 214 216 216 216 218 220 221 223 230 240 250 261 273 281 286 289 293 296 299 301 302 304 309 315 319 324 329 326 315 304 301 303 304 305 307 306 305 304 303 303 303 304 306 308 311 317 325 328 325 318 313 313 317
204 204 201 196 195 198 200 201 202 202 203 202 200 200 201 202 203 207 209 208 209 211 212 212 212 211 211 212 214 215 215 214 215 216 216 216 217 219 220 223 229 239 250 259 269 277 282 286 291 296 297 298 299 302 306 311 316 324 329 322 309 302 303 306 306 306 307 306 305 305 304 303 305 308 313 318 321 324 325 323 320 317 313 313 314
196 200 201 198 196 198 200 202 203 204 204 201 200 201 201 203 207 211 211 210 210 211 211 211 211 210 211 213 215 215 215 214 214 215 215 216 217 217 219 223 230 238 247 255 264 270 275 281 287 291 295 297 298 302 307 310 317 329 331 316 305 304 306 308 308 307 307 306 304 304 303 305 311 315 318 320 322 323 322 319 318 317 314 313 313
198 201 202 199 199 200 200 202 204 205 204 202 202 203 203 207 212 213 211 210 210 210 209 209 209 210 211 214 215 216 215 214 213 213 214 216 217 216 218 223 229 235 242 250 257 262 265 272 281 286 291 296 300 307 312 313 318 327 323 309 305 308 310 311 310 307 305 304 304 304 305 307 310 312 313 316 320 321 321 319 319 318 317 317 317
201 203 203 202 203 203 200 202 205 205 204 205 205 205 207 212 214 213 211 210 209 207 207 208 209 211 213 214 214 215 214 213 212 213 214 214 215 215 218 222 226 231 237 243 248 252 255 262 273 281 287 293 301 309 310 307 312 317 309 302 307 313 315 315 312 307 304 304 301 299 300 302 306 311 316 318 319 320 321 322 323 323 321 319 318
200 203 204 204 206 206 204 204 206 206 205 206 208 208 211 215 215 213 212 212 208 205 206 207 209 212 213 212 211 211 211 211 212 213 215 217 218 218 219 222 225 229 234 239 242 246 251 258 266 274 285 294 301 305 301 299 304 303 300 307 316 319 319 318 315 310 305 299 293 293 297 306 314 319 321 321 322 324 326 329 331 331 325 316 313
207 207 205 203 203 206 206 205 206 207 207 208 210 212 215 217 215 214 213 211 206 204 204 205 208 210 209 208 207 207 207 207 209 211 213 215 218 219 220 222 224 227 231 236 238 241 244 250 258 267 280 291 295 294 294 300 303 301 306 317 322 322 321 321 319 311 303 297 299 304 311 317 319 320 322 325 327 330 331 332 333 332 324 314 310
213 209 204 202 202 205 206 206 207 209 208 209 212 215 216 216 216 215 212 207 204 204 204 205 207 206 204 205 206 205 205 205 206 209 212 213 216 218 220 224 227 229 232 234 235 238 241 243 246 254 263 274 281 283 286 296 303 307 314 319 321 321 320 320 319 313 307 309 316 318 319 320 322 324 328 330 331 331 330 326 325 325 321 314 311
216 210 206 205 205 206 206 207 211 211 209 209 212 215 215 215 215 213 208 203 203 204 204 205 204 202 202 203 204 205 206 205 206 209 212 216 219 221 225 229 231 233 236 237 237 239 238 232 233 245 256 262 267 271 282 295 303 309 315 317 318 320 318 316 318 316 312 314 317 319 321 325 328 331 332 330 327 324 319 315 318 321 318 315 315
222 214 211 210 211 210 208 211 215 213 209 209 212 214 214 213 212 209 205 203 202 201 201 202 200 199 200 201 201 203 205 206 208 209 210 213 218 222 226 229 230 232 235 237 241 243 239 233 245 265 267 261 262 275 289 297 303 309 314 316 317 317 314 316 318 313 310 312 318 322 326 329 329 327 324 320 319 319 316 315 318 319 318 318 318
224 215 214 216 216 214 212 214 216 212 209 210 213 213 213 211 210 207 206 204 201 198 197 198 199 201 201 200 200 202 203 205 208 209 209 210 212 215 220 224 227 232 236 237 239 238 237 244 262 268 257 250 260 277 290 297 305 312 315 320 321 317 318 325 322 313 311 316 321 324 325 324 319 314 313 312 314 315 315 316 318 319 319 319 317